{"data":{"norad_id":65455,"epoch":"2026-05-25T02:42:26.232768Z","epoch_age_seconds":61231,"freshness":"FRESH","line1":"1 65455U 25194X   26145.11280362  .00002206  00000+0  15687-3 0  9996","line2":"2 65455  97.4496 359.2885 0002179  78.4916 281.6556 15.05655636 41145","mean_motion":15.05655636,"eccentricity":0.0002179,"inclination_deg":97.4496,"raan_deg":359.2885,"arg_perigee_deg":78.4916,"mean_anomaly_deg":281.6556,"bstar":0.00015687,"rev_number":4114,"period_min":95.639398914985,"perigee_km":547.98433545605,"apogee_km":551.00339698755,"semimajor_km":6927.6308662218,"source":"CELESTRAK","updated_at":"2026-05-25T13:38:20.810593Z"}}